RYR425M EHEH-LERS

Flight info

Callsign RYR425M
Flight time 1h 50m
Altitude 35000
Route WOODY N872 MEDIL DCT KOVIN/N0445F370 DCT DUCRA UM728 RESMI UN857 DISAK DCT DIRMO DCT VALKU DCT ATSUP DCT MINSO DCT DEGOL DCT PPG DCT ALBER P84 GIR
Aircraft B738/M-SDE2E3FGHIRWXY/LB1

Departure

Time 2026-04-28 01:02
Airport Eindhoven Airport (EHEH)

Arrival

Time 2026-04-28 02:53
Airport Reus Airport (LERS)
Time Latitude Longitude Altitude Speed Heading
2026-04-28 00:47 51.45615 5.38781 74 ft 0 kts 126°
2026-04-28 00:54 51.45620 5.38771 63 ft 4 kts 125°
2026-04-28 00:54 51.45635 5.38735 63 ft 4 kts 121°
2026-04-28 00:54 51.45647 5.38697 63 ft 4 kts 98°
2026-04-28 00:55 51.45644 5.38667 74 ft 2 kts 35°
2026-04-28 00:55 51.45643 5.38666 74 ft 1 kts 35°
2026-04-28 00:57 51.45647 5.38671 74 ft 2 kts 34°
2026-04-28 00:57 51.45668 5.38693 63 ft 5 kts 33°
2026-04-28 00:58 51.45696 5.38724 69 ft 5 kts 36°
2026-04-28 00:58 51.45733 5.38766 69 ft 8 kts 38°
2026-04-28 00:58 51.45784 5.38823 71 ft 10 kts 33°
2026-04-28 00:58 51.45839 5.38883 72 ft 9 kts 33°
2026-04-28 00:59 51.45891 5.38942 74 ft 9 kts 38°
2026-04-28 00:59 51.45944 5.38995 74 ft 9 kts
2026-04-28 00:59 51.45991 5.38940 68 ft 9 kts 303°
2026-04-28 00:59 51.46025 5.38861 74 ft 8 kts 304°
2026-04-28 01:00 51.46045 5.38814 74 ft 0 kts 304°
2026-04-28 01:01 51.46046 5.38812 74 ft 1 kts 304°
2026-04-28 01:01 51.46063 5.38769 69 ft 8 kts 303°
2026-04-28 01:01 51.46094 5.38669 74 ft 8 kts 242°
2026-04-28 01:01 51.46026 5.38587 66 ft 33 kts 215°
2026-04-28 01:02 51.45622 5.38135 73 ft 107 kts 215°
2026-04-28 01:02 51.44826 5.37243 85 ft 169 kts 216°
2026-04-28 01:02 51.43815 5.36071 674 ft 179 kts 216°
2026-04-28 01:02 51.42902 5.34709 1489 ft 187 kts 238°
2026-04-28 01:03 51.42572 5.32587 1873 ft 215 kts 279°
2026-04-28 01:03 51.43230 5.30392 2210 ft 227 kts 323°
2026-04-28 01:03 51.44645 5.29397 2834 ft 224 kts 352°
2026-04-28 01:03 51.46174 5.28830 3605 ft 227 kts 349°
2026-04-28 01:04 51.47710 5.28180 4456 ft 230 kts 342°
2026-04-28 01:04 51.48964 5.26647 5261 ft 242 kts 305°
2026-04-28 01:04 51.49594 5.23993 5690 ft 270 kts 287°
2026-04-28 01:04 51.50083 5.20925 5966 ft 299 kts 285°
2026-04-28 01:05 51.50616 5.17538 6210 ft 326 kts 285°
2026-04-28 01:05 51.51213 5.13883 6609 ft 346 kts 286°
2026-04-28 01:05 51.51843 5.10119 7375 ft 351 kts 285°
2026-04-28 01:05 51.52486 5.06308 8173 ft 356 kts 284°
2026-04-28 01:06 51.53140 5.02447 8972 ft 361 kts 283°
2026-04-28 01:06 51.53804 4.98528 9723 ft 367 kts 283°
2026-04-28 01:06 51.54477 4.94556 10518 ft 370 kts 283°
2026-04-28 01:06 51.55156 4.90532 11258 ft 374 kts 283°
2026-04-28 01:07 51.55795 4.86462 11945 ft 378 kts 277°
2026-04-28 01:07 51.55716 4.82267 12582 ft 379 kts 257°
2026-04-28 01:07 51.55117 4.78136 13368 ft 379 kts 256°
2026-04-28 01:07 51.54723 4.75388 13895 ft 381 kts 256°
2026-04-28 01:08 51.53938 4.69806 14729 ft 385 kts 257°
2026-04-28 01:08 51.53356 4.65593 15409 ft 387 kts 257°
2026-04-28 01:08 51.52778 4.61369 16080 ft 388 kts 256°
2026-04-28 01:08 51.52199 4.57123 16740 ft 390 kts 256°
2026-04-28 01:09 51.51615 4.52863 17387 ft 392 kts 256°
2026-04-28 01:09 51.50950 4.48608 17931 ft 395 kts 249°
2026-04-28 01:09 51.49555 4.44824 18469 ft 397 kts 229°
2026-04-28 01:09 51.47497 4.41890 19163 ft 394 kts 213°
2026-04-28 01:10 51.45075 4.39855 19849 ft 394 kts 206°
2026-04-28 01:10 51.42572 4.38018 20282 ft 399 kts 206°
2026-04-28 01:10 51.40037 4.36144 20726 ft 402 kts 206°
2026-04-28 01:10 51.37491 4.34264 21233 ft 404 kts 206°
2026-04-28 01:11 51.34932 4.32363 21754 ft 406 kts 207°
2026-04-28 01:11 51.32370 4.30454 22234 ft 408 kts 207°
2026-04-28 01:11 51.29795 4.28520 22711 ft 410 kts 207°
2026-04-28 01:11 51.27219 4.26558 23171 ft 412 kts 208°
2026-04-28 01:12 51.24631 4.24580 23605 ft 414 kts 208°
2026-04-28 01:12 51.22029 4.22595 23995 ft 416 kts 208°
2026-04-28 01:12 51.19406 4.20603 24367 ft 418 kts 208°
2026-04-28 01:12 51.16778 4.18619 24714 ft 420 kts 207°
2026-04-28 01:13 51.14057 4.16884 25048 ft 424 kts 202°
2026-04-28 01:13 51.08433 4.13881 25717 ft 428 kts 201°
2026-04-28 01:13 51.05606 4.12392 26036 ft 429 kts 201°
2026-04-28 01:14 51.02767 4.10876 26341 ft 431 kts 201°
2026-04-28 01:14 51.00888 4.09862 26545 ft 432 kts 201°
2026-04-28 01:14 50.98034 4.08312 26850 ft 434 kts 202°
2026-04-28 01:14 50.95179 4.06757 27149 ft 436 kts 202°
2026-04-28 01:15 50.91371 4.04684 27529 ft 438 kts 202°
2026-04-28 01:15 50.89421 4.03625 27713 ft 439 kts 202°
2026-04-28 01:15 50.86537 4.02004 28022 ft 439 kts 204°
2026-04-28 01:15 50.82792 3.99646 28580 ft 436 kts 205°
2026-04-28 01:16 50.80907 3.98413 28865 ft 434 kts 205°
2026-04-28 01:16 50.78125 3.96586 29423 ft 429 kts 205°
2026-04-28 01:16 50.75385 3.94798 30002 ft 425 kts 205°
2026-04-28 01:16 50.72654 3.93031 30398 ft 424 kts 205°
2026-04-28 01:17 50.69919 3.91275 30616 ft 426 kts 205°
2026-04-28 01:17 50.67159 3.89510 30792 ft 429 kts 205°
2026-04-28 01:17 50.64386 3.87743 31042 ft 430 kts 205°
2026-04-28 01:17 50.61610 3.85976 31323 ft 430 kts 205°
2026-04-28 01:18 50.58835 3.84213 31578 ft 432 kts 205°
2026-04-28 01:18 50.56047 3.82423 31817 ft 432 kts 206°
2026-04-28 01:18 50.53288 3.80562 32109 ft 432 kts 207°
2026-04-28 01:18 50.50537 3.78664 32336 ft 433 kts 207°
2026-04-28 01:19 50.47769 3.76749 32552 ft 435 kts 207°
2026-04-28 01:19 50.44996 3.74842 32801 ft 436 kts 207°
2026-04-28 01:19 50.42212 3.72939 33062 ft 437 kts 207°
2026-04-28 01:19 50.39418 3.71038 33303 ft 438 kts 208°
2026-04-28 01:20 50.36658 3.69165 33558 ft 440 kts 208°
2026-04-28 01:20 50.33847 3.67261 33741 ft 442 kts 208°
2026-04-28 01:20 50.30976 3.65319 33998 ft 442 kts 208°
2026-04-28 01:20 50.28149 3.63409 34250 ft 443 kts 208°
2026-04-28 01:21 50.25319 3.61499 34462 ft 444 kts 208°
2026-04-28 01:21 50.22482 3.59587 34669 ft 444 kts 208°
2026-04-28 01:21 50.19646 3.57677 34903 ft 444 kts 208°
2026-04-28 01:21 50.16807 3.55767 35113 ft 444 kts 208°
2026-04-28 01:22 50.11096 3.51930 35153 ft 447 kts 207°
2026-04-28 01:22 50.05395 3.48115 35159 ft 445 kts 207°
2026-04-28 01:23 49.99756 3.44349 35150 ft 443 kts 207°
2026-04-28 01:23 49.94099 3.40579 35154 ft 442 kts 207°
2026-04-28 01:24 49.88459 3.36830 35136 ft 441 kts 207°
2026-04-28 01:24 49.82816 3.33088 35149 ft 441 kts 207°
2026-04-28 01:25 49.77176 3.29358 35148 ft 441 kts 207°
2026-04-28 01:25 49.71517 3.25625 35143 ft 443 kts 207°
2026-04-28 01:26 49.65845 3.21893 35139 ft 443 kts 207°
2026-04-28 01:26 49.60167 3.18166 35141 ft 444 kts 207°
2026-04-28 01:27 49.54474 3.14437 35139 ft 445 kts 207°
2026-04-28 01:27 49.48788 3.10669 35140 ft 444 kts 211°
2026-04-28 01:28 49.46141 3.08265 35272 ft 440 kts 217°
2026-04-28 01:28 49.43608 3.05651 35580 ft 438 kts 217°
2026-04-28 01:28 49.41081 3.03038 35783 ft 439 kts 217°
2026-04-28 01:28 49.38541 3.00423 35921 ft 441 kts 217°
2026-04-28 01:29 49.35987 2.97813 36114 ft 441 kts 217°
2026-04-28 01:29 49.33431 2.95215 36335 ft 441 kts 217°
2026-04-28 01:29 49.30871 2.92624 36520 ft 442 kts 217°
2026-04-28 01:29 49.28299 2.90028 36685 ft 443 kts 217°
2026-04-28 01:30 49.25725 2.87435 36868 ft 443 kts 217°
2026-04-28 01:30 49.23162 2.84857 37139 ft 441 kts 217°
2026-04-28 01:30 49.18002 2.79672 37126 ft 444 kts 217°
2026-04-28 01:31 49.12854 2.74514 37123 ft 441 kts 217°
2026-04-28 01:31 49.07732 2.69393 37126 ft 439 kts 217°
2026-04-28 01:32 49.02631 2.64303 37125 ft 437 kts 217°
2026-04-28 01:32 48.97547 2.59243 37128 ft 436 kts 217°
2026-04-28 01:33 48.92464 2.54198 37132 ft 436 kts 217°
2026-04-28 01:33 48.87374 2.49155 37135 ft 437 kts 217°
2026-04-28 01:34 48.82266 2.44105 37137 ft 439 kts 217°
2026-04-28 01:34 48.77176 2.39084 37130 ft 440 kts 217°
2026-04-28 01:35 48.71996 2.33986 37131 ft 442 kts 217°
2026-04-28 01:35 48.66843 2.28927 37136 ft 442 kts 217°
2026-04-28 01:36 48.61704 2.23895 37113 ft 443 kts 217°
2026-04-28 01:36 48.56317 2.19321 37121 ft 448 kts 206°
2026-04-28 01:37 48.50258 2.16907 37125 ft 454 kts 196°
2026-04-28 01:37 48.44057 2.15031 37106 ft 454 kts 196°
2026-04-28 01:38 48.37870 2.13077 37111 ft 452 kts 197°
2026-04-28 01:38 48.31714 2.11096 37106 ft 452 kts 196°
2026-04-28 01:39 48.25391 2.10461 37102 ft 463 kts 178°
2026-04-28 01:39 48.18996 2.11943 37078 ft 465 kts 176°
2026-04-28 01:40 48.12613 2.13325 37093 ft 462 kts 180°
2026-04-28 01:40 48.06234 2.13811 37098 ft 458 kts 184°
2026-04-28 01:41 47.99864 2.14065 37104 ft 457 kts 184°
2026-04-28 01:41 47.93506 2.14366 37096 ft 457 kts 183°
2026-04-28 01:42 47.87155 2.14720 37103 ft 456 kts 183°
2026-04-28 01:42 47.80814 2.15090 37091 ft 456 kts 183°
2026-04-28 01:43 47.74481 2.15460 37089 ft 454 kts 184°
2026-04-28 01:43 47.68172 2.15826 37083 ft 453 kts 184°
2026-04-28 01:44 47.61883 2.16187 37085 ft 452 kts 184°
2026-04-28 01:44 47.55606 2.16547 37076 ft 451 kts 184°
2026-04-28 01:45 47.49339 2.16906 37082 ft 450 kts 184°
2026-04-28 01:45 47.43077 2.17263 37078 ft 450 kts 184°
2026-04-28 01:46 47.36822 2.17619 37078 ft 450 kts 184°
2026-04-28 01:46 47.30571 2.17974 37086 ft 450 kts 184°
2026-04-28 01:47 47.24296 2.18329 37084 ft 452 kts 184°
2026-04-28 01:47 47.18032 2.18684 37088 ft 454 kts 184°
2026-04-28 01:48 47.11706 2.19049 37078 ft 456 kts 182°
2026-04-28 01:48 47.05421 2.21022 37077 ft 471 kts 165°
2026-04-28 01:49 46.99338 2.24635 37072 ft 472 kts 163°
2026-04-28 01:49 46.93264 2.28291 37065 ft 471 kts 163°
2026-04-28 01:50 46.87202 2.31867 37069 ft 468 kts 164°
2026-04-28 01:50 46.81165 2.35377 37078 ft 466 kts 164°
2026-04-28 01:51 46.75146 2.38858 37075 ft 465 kts 164°
2026-04-28 01:51 46.69142 2.42324 37081 ft 463 kts 164°
2026-04-28 01:52 46.63158 2.45772 37077 ft 462 kts 164°
2026-04-28 01:52 46.57181 2.49209 37078 ft 461 kts 164°
2026-04-28 01:53 46.51213 2.52632 37076 ft 460 kts 164°
2026-04-28 01:53 46.45259 2.56041 37073 ft 460 kts 164°
2026-04-28 01:54 46.39305 2.59440 37077 ft 459 kts 164°
2026-04-28 01:54 46.33359 2.62827 37070 ft 459 kts 164°
2026-04-28 01:55 46.27449 2.66185 37078 ft 459 kts 164°
2026-04-28 01:55 46.21499 2.69559 37073 ft 459 kts 164°
2026-04-28 01:56 46.15550 2.72924 37075 ft 459 kts 164°
2026-04-28 01:56 46.09603 2.76282 37070 ft 459 kts 164°
2026-04-28 01:57 46.03659 2.79630 37073 ft 459 kts 164°
2026-04-28 01:57 45.97703 2.82952 37067 ft 459 kts 165°
2026-04-28 01:58 45.91723 2.86115 37068 ft 458 kts 165°
2026-04-28 01:58 45.85726 2.89265 37074 ft 459 kts 165°
2026-04-28 01:59 45.79726 2.92436 37072 ft 460 kts 165°
2026-04-28 01:59 45.73643 2.95029 37079 ft 451 kts 177°
2026-04-28 02:00 45.67463 2.95260 37074 ft 443 kts 187°
2026-04-28 02:00 45.61289 2.95001 37075 ft 444 kts 187°
2026-04-28 02:01 45.55100 2.94783 37076 ft 446 kts 186°
2026-04-28 02:01 45.49936 2.94632 37061 ft 447 kts 186°
2026-04-28 02:02 45.43717 2.94466 37066 ft 448 kts 186°
2026-04-28 02:02 45.37475 2.94300 37073 ft 449 kts 186°
2026-04-28 02:03 45.31216 2.94133 37074 ft 450 kts 186°
2026-04-28 02:03 45.24950 2.93966 37074 ft 451 kts 186°
2026-04-28 02:04 45.18671 2.93799 37082 ft 451 kts 186°
2026-04-28 02:04 45.12393 2.93631 37072 ft 451 kts 186°
2026-04-28 02:05 45.06128 2.93465 37074 ft 450 kts 186°
2026-04-28 02:05 44.99869 2.93299 37078 ft 449 kts 186°
2026-04-28 02:06 44.93639 2.93134 37063 ft 449 kts 186°
2026-04-28 02:06 44.87389 2.92968 37081 ft 448 kts 186°
2026-04-28 02:07 44.81158 2.92726 37081 ft 447 kts 187°
2026-04-28 02:07 44.74988 2.92250 37081 ft 447 kts 188°
2026-04-28 02:08 44.68783 2.91747 37077 ft 447 kts 188°
2026-04-28 02:08 44.62573 2.91274 37077 ft 447 kts 188°
2026-04-28 02:09 44.56357 2.90818 37054 ft 447 kts 187°
2026-04-28 02:09 44.50141 2.90368 37071 ft 447 kts 187°
2026-04-28 02:10 44.43923 2.89917 37061 ft 448 kts 187°
2026-04-28 02:10 44.37694 2.89467 37050 ft 448 kts 187°
2026-04-28 02:11 44.31466 2.89017 37067 ft 448 kts 187°
2026-04-28 02:11 44.25232 2.88567 37075 ft 449 kts 187°
2026-04-28 02:12 44.18991 2.88119 37071 ft 450 kts 187°
2026-04-28 02:12 44.12737 2.87669 37070 ft 450 kts 187°
2026-04-28 02:13 44.06480 2.87221 37085 ft 450 kts 187°
2026-04-28 02:13 44.00216 2.86773 37071 ft 451 kts 187°
2026-04-28 02:14 43.93949 2.86327 37070 ft 451 kts 187°
2026-04-28 02:14 43.87692 2.85881 37079 ft 451 kts 187°
2026-04-28 02:15 43.78280 2.85216 37056 ft 451 kts 186°
2026-04-28 02:16 43.72028 2.85152 37082 ft 452 kts 183°
2026-04-28 02:16 43.65687 2.85317 37072 ft 453 kts 183°
2026-04-28 02:17 43.59428 2.85464 37055 ft 453 kts 183°
2026-04-28 02:17 43.53097 2.85572 37067 ft 452 kts 183°
2026-04-28 02:18 43.46802 2.85664 37072 ft 452 kts 183°
2026-04-28 02:18 43.40510 2.85754 37068 ft 452 kts 183°
2026-04-28 02:19 43.34217 2.85845 37060 ft 452 kts 183°
2026-04-28 02:19 43.27912 2.85936 37064 ft 453 kts 183°
2026-04-28 02:20 43.21654 2.86027 37061 ft 453 kts 183°
2026-04-28 02:20 43.15341 2.86119 37054 ft 454 kts 183°
2026-04-28 02:21 43.09025 2.86210 37063 ft 454 kts 183°
2026-04-28 02:21 43.02697 2.86302 37059 ft 455 kts 183°
2026-04-28 02:22 42.96367 2.86393 37044 ft 456 kts 183°
2026-04-28 02:22 42.90022 2.86484 37052 ft 456 kts 183°
2026-04-28 02:23 42.83680 2.86576 37051 ft 456 kts 183°
2026-04-28 02:23 42.77340 2.86667 37049 ft 456 kts 183°
2026-04-28 02:24 42.71020 2.86407 37056 ft 453 kts 188°
2026-04-28 02:24 42.64750 2.85565 37051 ft 453 kts 189°
2026-04-28 02:25 42.58488 2.84755 37048 ft 453 kts 188°
2026-04-28 02:25 42.52204 2.84017 37048 ft 453 kts 188°
2026-04-28 02:26 42.46166 2.82384 37055 ft 442 kts 210°
2026-04-28 02:26 42.43576 2.80074 37061 ft 436 kts 224°
2026-04-28 02:26 42.41529 2.77076 37064 ft 432 kts 234°
2026-04-28 02:27 42.37874 2.70606 37055 ft 433 kts 235°
2026-04-28 02:27 42.34251 2.64110 37052 ft 433 kts 235°
2026-04-28 02:28 42.30628 2.57714 36846 ft 425 kts 234°
2026-04-28 02:28 42.28806 2.54530 36358 ft 421 kts 234°
2026-04-28 02:28 42.27014 2.51406 35676 ft 423 kts 234°
2026-04-28 02:28 42.25196 2.48242 34802 ft 431 kts 234°
2026-04-28 02:29 42.23377 2.45080 34131 ft 433 kts 234°
2026-04-28 02:29 42.21505 2.41833 33505 ft 432 kts 234°
2026-04-28 02:29 42.19677 2.38664 32678 ft 435 kts 234°
2026-04-28 02:29 42.17819 2.35448 31961 ft 435 kts 234°
2026-04-28 02:30 42.15949 2.32214 31042 ft 441 kts 233°
2026-04-28 02:30 42.14049 2.28930 30065 ft 447 kts 233°
2026-04-28 02:30 42.12124 2.25608 28963 ft 451 kts 233°
2026-04-28 02:30 42.10207 2.22304 28543 ft 442 kts 233°
2026-04-28 02:31 42.08338 2.19087 28225 ft 430 kts 233°
2026-04-28 02:31 42.06484 2.15899 27979 ft 438 kts 233°
2026-04-28 02:31 42.04576 2.12618 27734 ft 451 kts 233°
2026-04-28 02:31 42.02622 2.09261 27482 ft 461 kts 233°
2026-04-28 02:32 42.00638 2.05858 27218 ft 461 kts 232°
2026-04-28 02:32 41.98667 2.02485 26946 ft 456 kts 232°
2026-04-28 02:32 41.96714 1.99144 26686 ft 453 kts 232°
2026-04-28 02:32 41.94771 1.95825 26441 ft 450 kts 232°
2026-04-28 02:33 41.92851 1.92548 26177 ft 448 kts 232°
2026-04-28 02:33 41.90916 1.89248 25933 ft 447 kts 232°
2026-04-28 02:33 41.88991 1.85970 25688 ft 445 kts 232°
2026-04-28 02:33 41.87077 1.82711 25452 ft 444 kts 232°
2026-04-28 02:34 41.85169 1.79469 25216 ft 443 kts 232°
2026-04-28 02:34 41.83261 1.76229 24973 ft 442 kts 232°
2026-04-28 02:34 41.81356 1.72998 24727 ft 441 kts 232°
2026-04-28 02:34 41.79459 1.69783 24410 ft 437 kts 232°
2026-04-28 02:35 41.77579 1.66602 23783 ft 433 kts 232°
2026-04-28 02:35 41.75719 1.63458 23079 ft 428 kts 232°
2026-04-28 02:35 41.73880 1.60353 22422 ft 422 kts 232°
2026-04-28 02:35 41.72068 1.57295 21797 ft 417 kts 232°
2026-04-28 02:36 41.70275 1.54273 21175 ft 413 kts 232°
2026-04-28 02:36 41.68498 1.51281 20570 ft 408 kts 232°
2026-04-28 02:36 41.66737 1.48317 19960 ft 405 kts 232°
2026-04-28 02:36 41.65015 1.45425 19382 ft 401 kts 232°
2026-04-28 02:37 41.63261 1.42478 18784 ft 398 kts 232°
2026-04-28 02:37 41.61541 1.39593 18164 ft 396 kts 231°
2026-04-28 02:37 41.59851 1.36762 17509 ft 394 kts 231°
2026-04-28 02:37 41.58128 1.33877 16871 ft 390 kts 231°
2026-04-28 02:38 41.56444 1.31059 16291 ft 387 kts 231°
2026-04-28 02:38 41.54796 1.28306 15703 ft 384 kts 231°
2026-04-28 02:38 41.53108 1.25486 15122 ft 381 kts 231°
2026-04-28 02:38 41.51479 1.22770 14558 ft 379 kts 231°
2026-04-28 02:39 41.49836 1.20030 13977 ft 377 kts 231°
2026-04-28 02:39 41.48175 1.17266 13322 ft 376 kts 231°
2026-04-28 02:39 41.46542 1.14550 12702 ft 374 kts 231°
2026-04-28 02:39 41.44944 1.11893 12143 ft 371 kts 230°
2026-04-28 02:40 41.43314 1.09186 11566 ft 369 kts 231°
2026-04-28 02:40 41.41712 1.06528 10988 ft 366 kts 231°
2026-04-28 02:40 41.40116 1.03883 10365 ft 366 kts 231°
2026-04-28 02:40 41.38549 1.01286 9901 ft 362 kts 230°
2026-04-28 02:41 41.37000 0.98723 9664 ft 349 kts 230°
2026-04-28 02:41 41.35504 0.96247 9507 ft 337 kts 230°
2026-04-28 02:41 41.34062 0.93863 9352 ft 325 kts 230°
2026-04-28 02:41 41.32664 0.91555 9208 ft 315 kts 230°
2026-04-28 02:42 41.31312 0.89323 9088 ft 305 kts 230°
2026-04-28 02:42 41.29999 0.87159 8932 ft 296 kts 230°
2026-04-28 02:42 41.28732 0.85069 8841 ft 286 kts 230°
2026-04-28 02:42 41.27499 0.83039 8730 ft 278 kts 230°
2026-04-28 02:43 41.26304 0.81073 8653 ft 267 kts 230°
2026-04-28 02:43 41.25171 0.79210 8573 ft 252 kts 230°
2026-04-28 02:43 41.24095 0.77441 8460 ft 241 kts 230°
2026-04-28 02:43 41.22883 0.75972 8301 ft 236 kts 201°
2026-04-28 02:44 41.21317 0.75441 8240 ft 237 kts 188°
2026-04-28 02:44 41.19672 0.75060 7983 ft 240 kts 188°
2026-04-28 02:44 41.18027 0.74683 7728 ft 239 kts 188°
2026-04-28 02:44 41.16385 0.74354 7469 ft 238 kts 181°
2026-04-28 02:45 41.14741 0.74398 7229 ft 235 kts 175°
2026-04-28 02:45 41.13110 0.74523 6990 ft 234 kts 175°
2026-04-28 02:45 41.11484 0.74639 6760 ft 233 kts 175°
2026-04-28 02:45 41.09866 0.74767 6519 ft 232 kts 170°
2026-04-28 02:46 41.08368 0.75479 6248 ft 228 kts 151°
2026-04-28 02:46 41.06969 0.76431 5987 ft 223 kts 152°
2026-04-28 02:46 41.05597 0.77342 5756 ft 219 kts 152°
2026-04-28 02:46 41.04237 0.78254 5527 ft 219 kts 148°
2026-04-28 02:47 41.03180 0.79678 5285 ft 220 kts 117°
2026-04-28 02:47 41.02863 0.81638 5073 ft 222 kts 89°
2026-04-28 02:47 41.03277 0.83608 4852 ft 225 kts 67°
2026-04-28 02:47 41.03982 0.85467 4612 ft 226 kts 66°
2026-04-28 02:48 41.04687 0.87327 4364 ft 226 kts 66°
2026-04-28 02:48 41.05151 0.88559 4213 ft 225 kts 65°
2026-04-28 02:48 41.05846 0.90406 3961 ft 224 kts 65°
2026-04-28 02:48 41.06528 0.92226 3713 ft 216 kts 66°
2026-04-28 02:49 41.07187 0.93988 3470 ft 210 kts 66°
2026-04-28 02:49 41.07823 0.95694 3233 ft 204 kts 66°
2026-04-28 02:49 41.08442 0.97355 3001 ft 199 kts 66°
2026-04-28 02:49 41.09045 0.98975 2778 ft 194 kts 66°
2026-04-28 02:50 41.09633 1.00557 2544 ft 189 kts 66°
2026-04-28 02:50 41.10200 1.02084 2340 ft 179 kts 65°
2026-04-28 02:50 41.10735 1.03523 2151 ft 170 kts 65°
2026-04-28 02:50 41.11246 1.04899 2022 ft 162 kts 65°
2026-04-28 02:51 41.11699 1.06242 1764 ft 156 kts 70°
2026-04-28 02:51 41.12087 1.07573 1548 ft 153 kts 70°
2026-04-28 02:51 41.12469 1.08894 1363 ft 154 kts 70°
2026-04-28 02:51 41.12847 1.10212 1166 ft 151 kts 69°
2026-04-28 02:52 41.13193 1.11503 1006 ft 147 kts 69°
2026-04-28 02:52 41.13565 1.12767 802 ft 148 kts 66°
2026-04-28 02:52 41.13947 1.14030 619 ft 148 kts 68°
2026-04-28 02:52 41.14315 1.15293 382 ft 144 kts 67°
2026-04-28 02:53 41.14674 1.16501 243 ft 135 kts 68°
2026-04-28 02:53 41.14952 1.17441 241 ft 60 kts 69°
2026-04-28 02:53 41.15035 1.17596 241 ft 15 kts 356°
2026-04-28 02:53 41.15135 1.17545 241 ft 16 kts 311°
2026-04-28 02:54 41.15114 1.17406 241 ft 17 kts 249°
2026-04-28 02:54 41.15074 1.17263 241 ft 16 kts 249°
2026-04-28 02:54 41.15033 1.17125 241 ft 16 kts 251°
2026-04-28 02:54 41.14997 1.16993 241 ft 15 kts 248°
2026-04-28 02:55 41.14956 1.16864 241 ft 16 kts 250°
2026-04-28 02:55 41.14914 1.16708 241 ft 20 kts 250°
2026-04-28 02:55 41.14857 1.16515 241 ft 25 kts 248°
2026-04-28 02:55 41.14796 1.16302 241 ft 23 kts 250°
2026-04-28 02:56 41.14741 1.16114 241 ft 20 kts 247°
2026-04-28 02:56 41.14692 1.15959 241 ft 17 kts 246°
2026-04-28 02:56 41.14653 1.15815 241 ft 16 kts 250°
2026-04-28 02:56 41.14619 1.15703 241 ft 9 kts 249°
2026-04-28 02:57 41.14597 1.15627 241 ft 8 kts 248°
2026-04-28 02:57 41.14614 1.15587 241 ft 5 kts 336°
2026-04-28 02:57 41.14647 1.15569 241 ft 5 kts 339°
2026-04-28 02:57 41.14652 1.15567 241 ft 1 kts 339°
2026-04-28 02:58 41.14666 1.15560 241 ft 2 kts 339°
2026-04-28 02:58 41.14671 1.15557 241 ft 0 kts 339°